Yaogan 30 hao 02 zu 01 xing

operational
NORAD ID: 43028 Int'l Des: 2017-075 Owner: ZLZB Country: CN Constellation: yaogan
LEOCIRCULAR

About Yaogan 30 hao 02 zu 01 xing

Description loading...

Live Position

Loading 3D Globe...

Upcoming Passes

Altitude History

Altitude vs Time

uPlot chart will show altitude changes over time

Two-Line Element Set

1 43028U 17075A 25346.99410997 .00005636 00000-0 42875-3 0 9994
2 43028 34.9958 324.5849 0001379 161.0729 199.0030 15.01521559439235
Epoch: Dec 12, 2025 • Age: 16 hours

Current Status

Altitude 561.1 km
Velocity 7.58 km/s
Sub-Earth Point 15.04°N, 21.33°E
Launch Date Nov 24, 2017
Age 8 years
Type military

Technical Details

Classification Payload
Mass 500.00 kg
Dry Mass 500.00 kg
Total Mass 500.00 kg
Length 0.50 m
Diameter 0.50 m
Span 1.00 m
Shape Box + 2 Pan
Manufacturer SECM
Phase Status In Orbit
Owner/State ZLZB/CN

Large Constellations

Loading constellations...